Location: Cuzcurrita-R�o Tir�n
(42.5415°N, 2.9642°W)
Time: 10:22:01
(UTC+00:00)

Cosmos 2227 Rocket - Pass Details

Date: 27 February 2020
Orbit: 839 x 845 km, 71.0° (Epoch: 29 March)

Event Time Altitude Azimuth Distance (km) Brightness Sun altitude
Rises 21:42:23 0° 325° (NW) 3,405 6.1 -40.6°
Reaches altitude 10° 21:45:07 10° 314° (NW) 2,466 5.3 -41.1°
Enters shadow 21:47:24 21° 296° (WNW) 1,830 4.4 -41.4°
